Royal Flush POKER88 Online - DEWA POKER Indonesia Terpercaya

Jackpot

Texas Poker Multi Jackpot System

Kini Telah hadir Jackpot SUPER ROYAL FLUSH

Kini Telah hadir Jackpot 2000 (khusus table VIP keatas).

Ikutilah global jackpot yang tersedia di system kami, dengan system jackpot terbaru dan pertama di indonesia, anda dapat membeli jackpot dengan harga 100 rupiah saja dan menangkan hadiahnya hingga puluhan juta rupiah.

Jackpot bukanlah suatu keharusan untuk dibeli, namun kami memberikan suatu fitur tambahan untuk member tercinta dari www.jagoanpoker.com.

Terdapat tiga pilihan harga jackpot yang bisa anda beli yaitu :100,500,1000 dan 2000(khusus table VIP Keatas) rupiah.

Hadiah dari Multi jackpot system www.jagoanpoker.com

  1. full house x 10 harga jackpot yang anda beli.
      (contoh:anda membeli 1000 maka:1000 X10 = 10.000)
  2. four of kind x 250 harga jackpot yang anda beli
      (contoh:anda membeli 1000 maka:1000 X250 = 250.000)
  3. Straight flush x 1200
      (contoh:anda membeli 1000 maka:1000 X1200 = 1.200.000)
  4. Royal flush x 10000 harga jackpot yang anda beli
      (contoh:anda membeli 1000 maka:1000 X10000 = 10.000.000)
  5. SUPER ROYAL FLUSH x 30000 harga jackpot yang anda beli
      (contoh:anda membeli 1000 maka:1000 X30000 = 30.000.000)

Kondisi kartu

  1. full house adalah kondisi kartu dimana kartu anda dan kartu tengah dengan total 7 kartu bisa mendapatkan nilai 5 kartu dengan kombinasi 1 tris(three of kind) dan 1 pair, contoh 3 kartu 10 dan 2 kartu 5
  2. Four of kind adalah kondisi kartu dimana kartu anda dan kartu tengah dengan total 7 kartu bisa mendapatkan nilai 5 kartu dengan kombinasi 4 kartu yang sama jumlah dan 1 kartu apapun juga contoh anda mendapatkan 4 buah kartu angka 3 dan 1 kartu apapun.
  3. Staright flush adalah kondisi kartu dimana kartu anda dan kartu tengah dengan total 7 kartu bisa mendapatkan nilai 5 kartu dengan kombinasi seri / staright dengan kembang yang sama contoh : urutan kartu dari angka 5, 6, 7, 8 , 9 10 dengan kembang yg sama misalnya as hati
  4. Royal flush adalah kondisi kartu dimana kartu anda dan kartu tengah dengan total 7 kartu bisa mendapatkan nilai 5 kartu dengan kombinasi seri / staright dengan kembang yang sama tetapi kartu tersebut haruslah dimulai dari 10. contoh 10, Queen, Jack, King dan aces dengan kembang yang sama
  5. Super Royal flush adalah kondisi kartu dimana Kedua kartu anda digabung dengan 3 kartu pertama meja haruslah royal flush. contoh kartu anda 10,Queen kembang sama dan 3 kartu pertama meja adalah Jack, King dan aces dengan kembang yang sama

Demikian adalah penjelasan dari Multi Jackpot www.jagoanpoker.com terima kasih dan selamat bermain salam hoki dari kami

Texas Poker Jackpot Winner

TOP SUPER ROYAL FLUSH
No.TanggalNamaPriceWin
121/04 13:00SEMBILAN81Super Royal flush15,000,000
221/04 04:00B4NDARC3MESuper Royal flush3,000,000
321/04 03:38OSESIAMSuper Royal flush15,000,000
421/04 00:18ERLINDA88Super Royal flush30,000,000
520/04 21:16PENGAK25Super Royal flush6,000,000
TOP ROYAL FLUSH
No.TanggalNamaPriceWin
121/04 14:13SYAFFII132Royal flush2,000,000
221/04 13:42TETEH991Royal flush2,000,000
321/04 13:15JUJI040489Royal flush1,000,000
421/04 13:12REGGY212Royal flush2,000,000
521/04 12:59KENCUURRRoyal flush2,000,000
TOP STRAIGHT FLUSH
No.TanggalNamaPriceWin
121/04 14:40DUMPA77Straight Flush240,000
221/04 14:39RODI13Straight Flush120,000
321/04 14:39RBCRStraight Flush1,200,000
421/04 14:35LANCLOTTStraight Flush240,000
521/04 14:35JUNET2525Straight Flush600,000
LATEST JACKPOT
No.TanggalNamaPriceWin
121/04 14:42BONTOIK139Full House1,000
221/04 14:42B18SE565Full House10,000
321/04 14:42REKBIRUFour Of A Kind25,000
421/04 14:42S3NGETZZFull House2,000
521/04 14:42QIUQIFull House10,000
621/04 14:42JACKMA4Four Of A Kind250,000
721/04 14:42GEREUDA1Full House1,000
821/04 14:42CUT_MARINEFull House2,000
921/04 14:42HIGHTEMPZFull House5,000
1021/04 14:42GUNAWAYFour Of A Kind50,000
1121/04 14:42RG0O7IH6XQFull House5,000
1221/04 14:42MAMATQ9Four Of A Kind125,000
1321/04 14:42MAKPONE09Full House2,000
1421/04 14:42HENTAI9Full House5,000
1521/04 14:42DUCHIEL69Full House5,000
1621/04 14:42BOOM4544Full House10,000
1721/04 14:42POAD1989Full House5,000
1821/04 14:42DIFFAECIWFull House5,000
1921/04 14:42SAMBU07Full House5,000
2021/04 14:42IKIIKI01Full House2,000
2121/04 14:42FERISKCFull House1,000
2221/04 14:42INFERN0Full House5,000
2321/04 14:42MPD1103Full House2,000
2421/04 14:42YOER303Full House2,000
2521/04 14:42K1NK1N4NT4Full House1,000
2621/04 14:42DOCABOIFull House1,000
2721/04 14:42KOOP1NGFull House2,000
2821/04 14:42JJ88888Full House10,000
2921/04 14:42XVKAL0X47IFour Of A Kind125,000
3021/04 14:42SR_BRON70Full House5,000
3121/04 14:42K3N3_KIL0Full House2,000
3221/04 14:42ZIDANE234Full House2,000
3321/04 14:42DWBTLSAL97Full House10,000
3421/04 14:42K3M3M21Full House5,000
3521/04 14:42LADY222Full House2,000
3621/04 14:42ASDFGHJK12Full House2,000
3721/04 14:41BRITN33YY7Full House2,000
3821/04 14:41ONYENTATAFull House2,000
3921/04 14:41DONTTOUCHMEFull House2,000
4021/04 14:41MISINGAERFull House5,000
4121/04 14:41TEKKO77Full House1,000
4221/04 14:41JAGONGANFull House2,000
4321/04 14:41HDY0705Full House10,000
4421/04 14:41KANCIL0007Full House5,000
4521/04 14:41RXBIO88Full House2,000
4621/04 14:41P0ETR193Full House2,000
4721/04 14:41WASQTOFull House1,000
4821/04 14:41POAD1989Full House5,000
4921/04 14:41N86WUJ477QFull House10,000
5021/04 14:41BARB0ZAFull House2,000

Domino Multi Jackpot System

Ikutilah global jackpot yang tersedia di system kami, dengan system jackpot terbaru dan pertama di indonesia, anda dapat membeli jackpot dengan harga 100 rupiah saja dan menangkan hadiahnya hingga puluhan juta rupiah.

Jackpot bukanlah suatu keharusan untuk dibeli, namun kami memberikan suatu fitur tambahan untuk member tercinta dari www.jagoanpoker.com.

Terdapat tiga pilihan harga jackpot yang bisa anda beli yaitu :100,500 dan 1000 rupiah.

Hadiah dari Multi jackpot system www.jagoanpoker.com

  1. Murni Kecil x 50 harga jackpot yang anda beli.
      (contoh:anda membeli 1000 maka:1000 X 50 = 50.000)
  2. Murni Besar x 50 harga jackpot yang anda beli
      (contoh:anda membeli 1000 maka:1000 X 50 = 50.000)
  3. BALAK x 100 harga jackpot yang anda beli
      (contoh:anda membeli 1000 maka:1000 X 100 = 100.000)
  4. ENAM DEWA x 6666 harga jackpot yang anda beli
      (contoh:anda membeli 1000 maka:1000 X 6666 = 6.666.000)

Demikian adalah penjelasan dari Multi Jackpot www.jagoanpoker.com terima kasih dan selamat bermain salam hoki dari kami

Domino Jackpot Winner

TOP ENAM DEWA
No.TanggalNamaPriceWin
121/04 09:18OUYAGmurni enam6,666,000
221/04 08:18SING_HASILmurni enam3,333,000
321/04 07:50KIKIW39murni enam6,666,000
421/04 07:18EV072murni enam3,333,000
521/04 07:03NINABOBO21murni enam666,600
TOP BALAK
No.TanggalNamaPriceWin
121/04 14:42TISNABRAY7balak100,000
221/04 14:37ZON486balak50,000
321/04 14:37MDRKING86balak100,000
421/04 14:35K3W3Qbalak100,000
521/04 14:33FAL521balak50,000
LATEST JACKPOT
No.TanggalNamaPriceWin
121/04 14:42TISNABRAY7balak100,000
221/04 14:41THE_BAJANKmurni kecil50,000
321/04 14:41EGHOL99murni besar5,000
421/04 14:41HENGKI005murni besar50,000
521/04 14:40BBCD4198murni besar25,000
621/04 14:40BOJESZZ25murni kecil50,000
721/04 14:40ANDREKECENmurni kecil5,000
821/04 14:39G4J4413murni kecil25,000
921/04 14:39HERLIN789murni besar50,000
1021/04 14:38MESTAIYA30murni besar50,000
1121/04 14:38BORAK56murni besar5,000
1221/04 14:38S4LAM99murni kecil25,000
1321/04 14:37ZON486balak50,000
1421/04 14:37MDRKING86balak100,000
1521/04 14:36AGUS9194murni besar50,000
1621/04 14:35C68A27D7murni kecil5,000
1721/04 14:35K3W3Qbalak100,000
1821/04 14:35M4W4N77murni kecil5,000
1921/04 14:35GASOMmurni kecil50,000
2021/04 14:35C68A27D7murni besar5,000
2121/04 14:34KREWOL86murni kecil50,000
2221/04 14:33BLARAK888lucky9925,000
2321/04 14:33FAL521balak50,000
2421/04 14:33GRAB20222murni besar50,000
2521/04 14:32GALAHAD245lucky9910,000
2621/04 14:31TAGABUGAmurni besar50,000
2721/04 14:30RD1979murni kecil50,000
2821/04 14:30IGU15balak100,000
2921/04 14:29SIDE72murni besar50,000
3021/04 14:28WAANGbalak100,000
3121/04 14:28DM82997murni besar5,000
3221/04 14:28LOEKMAN91murni kecil50,000
3321/04 14:27C899balak50,000
3421/04 14:26LESLEY8balak100,000
3521/04 14:26MAKIKANG84murni kecil25,000
3621/04 14:25FL0W3RH0RNmurni kecil25,000
3721/04 14:25ZAKI678balak100,000
3821/04 14:24SIDE72balak100,000
3921/04 14:24TUMINO9murni kecil25,000
4021/04 14:24HAWKS777murni kecil50,000
4121/04 14:23DE795488balak10,000
4221/04 14:23NADAYmurni kecil50,000
4321/04 14:22BORAK56murni besar5,000
4421/04 14:21G3G32balak100,000
4521/04 14:20ANDROMAX9murni besar50,000
4621/04 14:19DIANWAEmurni besar5,000
4721/04 14:18AUFAA86balak50,000
4821/04 14:18KULU3murni kecil25,000
4921/04 14:17DANG55murni besar25,000
5021/04 14:16IMELDA727murni kecil50,000

Ceme Multi Jackpot System

Jackpot dilihat dari gabungan kartu pemain dengan kartu bandar. Bandar harus membeli jackpot sebanyak jumlah player yang sedang duduk. Sebagai contoh bila terdapat 3 pemain duduk bermain, dan bandar memutuskan untuk membeli jackpot Rp 1.000, maka pada periode tersebut bandar akan membeli jackpot sebanyak 3xRp1.000 = Rp3.000.

Jackpot bukanlah suatu keharusan untuk dibeli, namun kami memberikan suatu fitur tambahan untuk member tercinta dari www.jagoanpoker.com.

Terdapat tiga pilihan harga jackpot yang bisa anda beli yaitu :100,500 dan 1000 rupiah.

Hadiah dari Multi jackpot system www.jagoanpoker.com

  1. Murni Kecil x 50 harga jackpot yang anda beli.
      (contoh:anda membeli 1000 maka:1000 X 50 = 50.000)
  2. Murni Besar x 50 harga jackpot yang anda beli
      (contoh:anda membeli 1000 maka:1000 X 50 = 50.000)
  3. BALAK x 200 harga jackpot yang anda beli
      (contoh:anda membeli 1000 maka:1000 X 200 = 200.000)
  4. ENAM DEWA x 6666 harga jackpot yang anda beli
      (contoh:anda membeli 1000 maka:1000 X 6666 = 6.666.000)

Demikian adalah penjelasan dari Multi Jackpot www.jagoanpoker.com terima kasih dan selamat bermain salam hoki dari kami

Ceme Jackpot Winner

TOP ENAM DEWA
No.TanggalNamaPriceWin
121/04 14:42JOWO_O7murni enam3,333,000
221/04 14:42HARUNAARONmurni enam666,600
321/04 14:36CAHAMBAS00murni enam666,600
421/04 14:35MUJI16murni enam6,666,000
521/04 14:34DIANINULmurni enam6,666,000
TOP BALAK
No.TanggalNamaPriceWin
121/04 14:42LB889510balak200,000
221/04 14:42OKIS89balak200,000
321/04 14:41PT4DLUBIS88balak20,000
421/04 14:40GEVIN238balak200,000
521/04 14:40TUSIRUNbalak20,000
LATEST JACKPOT
No.TanggalNamaPriceWin
121/04 14:42NJEBLEZ99murni kecil5,000
221/04 14:42JOWO_O7murni enam3,333,000
321/04 14:42HARUNAARONmurni enam666,600
421/04 14:42ASEPZAM2murni kecil25,000
521/04 14:42SABAR1399murni kecil50,000
621/04 14:42XRIARHMmurni kecil25,000
721/04 14:42WINBABAS23murni kecil50,000
821/04 14:42LB889510balak200,000
921/04 14:42OKIS89murni besar50,000
1021/04 14:42OKIS89murni besar50,000
1121/04 14:42ANDRI960murni besar50,000
1221/04 14:42OKIS89balak200,000
1321/04 14:42GBGB123murni besar50,000
1421/04 14:42SIMULA04murni kecil5,000
1521/04 14:41BOLENA111murni kecil5,000
1621/04 14:41PT4DLUBIS88balak20,000
1721/04 14:41XXXAQLKmurni kecil50,000
1821/04 14:41KOJAL86murni kecil50,000
1921/04 14:41NAONBAE87murni besar50,000
2021/04 14:40BEBEK25262murni kecil25,000
2121/04 14:40KROCO2murni kecil50,000
2221/04 14:40GEGER29murni kecil50,000
2321/04 14:40D3950DB3murni kecil50,000
2421/04 14:40GEVIN238balak200,000
2521/04 14:40TUSIRUNbalak20,000
2621/04 14:40CARLES97murni besar50,000
2721/04 14:40DWPLAY11murni besar50,000
2821/04 14:40EXTREMM99murni kecil50,000
2921/04 14:40VE1993murni kecil50,000
3021/04 14:40EXTREMM99murni kecil50,000
3121/04 14:40QUINSY10murni kecil5,000
3221/04 14:40AGUY12murni besar25,000
3321/04 14:40KUNCORO61murni besar5,000
3421/04 14:40FLEX66balak200,000
3521/04 14:40PUSSY422murni kecil50,000
3621/04 14:40XXXAQLKmurni kecil50,000
3721/04 14:40KIYAIQQmurni kecil5,000
3821/04 14:39A84B14AAmurni kecil25,000
3921/04 14:39EKOKIPZ45murni kecil50,000
4021/04 14:39POH0balak20,000
4121/04 14:39QQDONNY99murni besar5,000
4221/04 14:38SITY277murni kecil50,000
4321/04 14:38PAPAT12murni kecil5,000
4421/04 14:38SILINDUNGmurni kecil25,000
4521/04 14:38IWANOL4Ymurni kecil25,000
4621/04 14:38KANCILL43murni kecil5,000
4721/04 14:38M3M3XJANDAmurni kecil5,000
4821/04 14:38YUNI2333murni besar25,000
4921/04 14:38WIDIKmurni kecil50,000
5021/04 14:38BYANTORO02murni kecil50,000